Погода в Семиярке

Хотите узнать прогноз погоды в Семиярке? Тогда Вам сюда: Погода в Семиярке

Поиск расширенной информации на нашем сайте:

Полезная информация:

Новости сайта



02.01.2020
Опубликован Долгосрочный прогноз погоды по городам России и ближнего зарубежья на январь 2020 года.
Карты: Прогноз на январь и февраль 2020 года, Сравнение прогнозируемой аномалии приземной температуры воздуха на январь 2020 года по разным моделям.




Погода в Семиярке - сегодня

Время (UTC), дата Ветер
(°,м/с) 
Видим.   Явления Облачность Т
(°С)
Тd
(°С)
f(%) Тe
(°С)
Pmin
(гПа)
dP
(гПа)
Po
(мм)
O2
(г/м3)
Тmin Tmax R s Состояние
почвы
12 22.10.21 230 (ЮЗ) 20000 м    9/9 600 м кучево-дожд. 
[Cb calv]
+5.1 -6 44 +2  1026.9  2.4  756  300           
15 22.10.21 290 (З) н/о    1/0 верхняя 
[Ci sp]
+1.8 -4.4 63 -1  1028.7  1.5  758  304    +10.2       
18 22.10.21 250 (З) н/о    1/0 средняя 
[Ac lent]
-0.4 -4.2 75 -5  1028.9  0.1  758  306    +10.2  0.0     
21 22.10.21 180 (Ю) н/о    9/9 600 м 
[Sc]
+2.3 -2.4 71 -1  1028.1  -0.6  757  303           
00 23.10.21 180 (Ю) н/о    10/10 600 м 
[Sc]
+5.1 -0.8 66 +2  1027.3  -0.6  757  299           
03 23.10.21 180 (Ю) 20000 м    10/10 600 м 
[Sc]
+6.2 -3.1 51 +4  1027  -0.2  757  298           
06 23.10.21 200 (Ю) 20000 м  в посл. час ливневой дождь  10/10 600 м кучево-дожд. 
[Cb calv]
+6.3 +0.7 67 +5  1026.2  -0.8  756  298  -1.1         
09 23.10.21 230 (ЮЗ) 4000 м  слаб. ливневой дождь  9/9 600 м кучево-дожд. 
[Cb calv]
+6.1 +2.7 79 +4  1024.7  -1.5  755  297           
12 23.10.21 230 (ЮЗ) 20000 м  {ливн. осадки}  9/9 600 м 
[Sc]
+5.5 -1.3 62 +2  1024.8  0.1  755  298           
15 23.10.21 230 (ЮЗ) н/о    9/9 600 м 
[Sc]
+7.3 +1.3 66 +5  1025.6  0.9  756  296    +8.3       
18 23.10.21 230 (ЮЗ) 12{16}  н/о    9/6 600 м средняя 
[Sc|Ac trans]
+9.1 -0.3 52 +6  1025.3  -0.2  755  295    +8.3  0.0     
21 23.10.21 230 (ЮЗ) 14{16}  н/о    8/8 600 м 
[Sc]
+9.3 -0.3 51 +6  1025.5  0.2  756  294           
00 24.10.21 230 (ЮЗ) н/о    9/9 600 м 
[Sc]
+8.9 -0.3 52 +7  1025.7  0.2  756  295           
03 24.10.21 230 (ЮЗ) 20000 м    10/10 600 м 
[Sc]
+9.3 -0.7 50 +7  1026.5  0.8  756  295           
06 24.10.21 270 (З) 20000 м    9/9 600 м 
[Sc]
+10.2 +0.9 52 +9  1026.8  0.3  757  294  +7.3         
09 24.10.21 270 (З) 20000 м    9/8 600 м кучево-дожд., средняя 
[Cb calv|Ac trans]
+13.9 +2.9 47 +13  1025.5  -1  756  289           
12 24.10.21 270 (З) 20000 м    6/4 600 м кучево-дожд., средняя 
[Cb calv|Ac trans]
+12.6 +3.1 52 +12  1025.7  0.1  756  291           
15 24.10.21 230 (ЮЗ) н/о    9/4 600 м средняя 
[Sc|Ac trans]
+11.1 +3.3 59 +11  1026.2  0.4  756  292    +14.9       
18 24.10.21 230 (ЮЗ) н/о    ясно 
+6.2 +2 74 +5  1026  -0.5  756  297    +14.9       
21 24.10.21 230 (ЮЗ) н/о    ясно 
+5.3 +2.1 80 +5  1025.1  -0.9  755  298           
00 25.10.21 230 (ЮЗ) н/о    ясно 
+1.1 -0.3 90 -1  1024.6  -0.8  755  303           
03 25.10.21 180 (Ю) 20000 м    3/0 верхняя 
[Ci fib]
+3.5 +0.6 81 +3  1024.1  -0.4  754  300           
06 25.10.21 160 (Ю) 20000 м    5/0 верхняя 
[Ci fib]
+11.1 +1.9 53 +10  1022.5  -1  753  291  +1.1         
09 25.10.21 тихо ()   20000 м    9/0 верхняя 
[Cs]
+14.9 +2 42 +15  1020.1  -2.2  752  287           
12 25.10.21 тихо ()   20000 м    9/0 верхняя 
[Cs]
+11 +2.7 57 +11  1019.8  -0.5  751  291           
Время (UTC), дата Ветер
(°,м/с) 
Видим.   Явления Облачность Т
(°С)
Тd
(°С)
f(%) Тe
(°С)
Pmin
(гПа)
dP
(гПа)
Po
(мм)
O2
(г/м3)
Тmin Tmax R s Состояние
почвы

Для получения пояснительной информации подведите курсор к названию столбца.

ПОГОДА в Семиярке - архив

Всё, что Вы хотите узнать о погоде в Семиярке - удобно и подробно!

Выберите нужную дату (начиная с 1 января 2019* года) и нажмите кнопку "Найти".
Будут отображены архивные сводки погоды по пункту Семиярка, начиная с указанной даты.


Отображать данные в формате CSV (для использования в таблицах Excel)


Внимание! Наш архив погоды предназначен исключительно для личного некоммерческого использования в познавательных целях. Если Вам необходимы официальные справки о состоянии погоды (для производственных, юридических, коммерческих и т.п. целей), обращайтесь в органы Росгидромета.

*Примечание: данная дата относится к архиву по метеостанциям СССР (Россия, СНГ, Балтия).
Архив по метеостанциям Зарубежной Европы и Азии (кроме Китая) хранится 10 дней, по другим регионам земного шара (Китай, Африка, Америка, Австралия, Океания) - 1 день.

Семиярка - район местоположения метеостанции


Название, широта, долгота, высота метеостанции:
Семиярка 50.9°ш. 78.3°д. 149 м над ур. моря [Казахстан]

Дополнительная информация

В oтличие oт бoльшинства пoгoдных сайтoв мы публикуем пoдрoбную метеoинфoрмацию в детальнoм прoфессиoнальнoм фoрмате.

Характеристики температуры и влажнoсти вoздуха измеряются на высoте 2 м в тени вдали oт зданий и деревьев.
Скoрoсть ветра измеряется на высoте 10 м (на урoвне рoста челoвека скoрoсть ветра ниже в 1.5-2 раза). Если метеoстанция нахoдится в гoрoде или в лесу, тo скoрoсть ветра занижена на 2-4 м/с пo сравнению с oткрытым местoм. Скoрoсть ветра над акватoриями крупных рек и oзёр, а также на вершинах хoлмoв на 2-5 м/с выше, чем в oбычных услoвиях.
Атмoсфернoе давление в разных тoчках местнoсти мoжет значительнo oтличаться oт давления на метеoстанции, в зависимoсти oт услoвий рельефа (при пoдъёме на 10 м давление пoнижается примернo на 1 мм рт.ст.).